Погода в Пудоже

Погода в Пудоже : погода сейчас, прогноз погоды и архив. Всё, что Вы хотите узнать о погоде в Пудоже!

Хотите узнать прогноз погоды в Пудоже? Тогда Вам сюда: Погода в Пудоже

Поиск расширенной информации на нашем сайте:

Другие новости

Новости СМИ2

Главная страница сайта

Новости сайта

03.07.2017

Напоминаем, что на нашем специализированном сайте Метеоцентр.Азия вы можете получить высокодетализированные автоматические прогнозы погоды по пунктам России, СНГ и мира в авиационном формате (включающие направление и скорость ветра, видимость, явления погоды, количество и форму облачности, нижнюю и верхнюю границу облачности).

Рекомендуем: выгодно снять: продажа офиса БЦ Новоспасский Двор у метро Пролетарская на сайте бизнес центра

Погода в Пудоже - сегодня

Время (UTC), дата Ветер
(°,м/с) 
Видим.   Явления Облачность Т
(°С)
Тd
(°С)
f(%) Тe
(°С)
Pmin
(гПа)
dP
(гПа)
Po
(мм)
O2
(г/м3)
Тmin Tmax R s Состояние
почвы
00 18.07.17 120 (ЮВ) 20000 м  {ливн. осадки}  8/4 600 м кучево-дожд., средняя 
[Cb cap|Ac trans]
+12.4 +12 97 +18  1008.2  -0.4  752  287           
03 18.07.17 170 (Ю) 10 км  слаб. ливневой дождь  9/9 240 м кучево-дожд. 
[Cb cap]
+13.4 +12.5 94 +20  1008.4  0.2  752  286  +12.1    0.6     
06 18.07.17 210 (ЮЗ) 20000 м  в посл. час ливневой дождь  9/8 540 м кучево-дожд., средняя 
[Cb cap|Ac trans]
+15.7 +13.5 87 +23  1008.6  0.2  752  284  +12.1    0.6    влажная 
09 18.07.17 210 (ЮЗ) 20000 м    8/4 600 м кучево-дожд., средняя 
[Cb cap|Ac trans]
+17.8 +13.1 74 +24  1009.1  0.5  753  282           
12 18.07.17 250 (З) 20000 м    6/3 600 м кучево-дожд., средняя 
[Cb cap|Ac trans]
+19.6 +11.2 58 +24  1009.2  0.2  753  281           
15 18.07.17 260 (З) 20000 м    8/3 600 м кучево-дожд., средняя 
[Cb cap|Ac trans]
+19.8 +10.3 54 +22  1009.4  0.2  753  281      0.0     
18 18.07.17 тихо ()   20000 м    3/0 средняя 
[Ac trans]
+16.6 +11.3 71 +19  1010.1  0.6  753  284    +20.4       
21 18.07.17 тихо ()   10 км    6/3 1000 м средняя 
[Sc|Ac trans]
+9.7 +9.2 97 +10  1010.6  0.4  754  292           
00 19.07.17 тихо ()   20000 м    9/9 420 м кучево-дожд. 
[Cb cap]
+10.1 +9.6 97 +11  1010.9  0.3  754  291           
03 19.07.17 тихо ()   20000 м    8/0 средняя 
[Ac trans]
+12.6 +11.4 92 +16  1010.6  -0.3  754  288  +9         
06 19.07.17 140 (ЮВ) 20000 м    6/3 600 м кучево-дожд., средняя 
[Cb cap|Ac trans]
+16.3 +11.8 75 +21  1010.4  754  284  +9        влажная 
09 19.07.17 230 (ЮЗ) 20000 м    9/4 600 м кучево-дожд., средняя, верхняя 
[Cb cap|Ac trans|Ci fib]
+16.8 +12.8 77 +23  1010.4  754  284           
12 19.07.17 250 (З) 20000 м  {гроза}  8/4 600 м кучево-дожд., средняя, верхняя 
[Cb cap|Ac trans|Ci fib]
+16.6 +10.6 68 +19  1010.5  -0.1  754  284           
15 19.07.17 210 (ЮЗ) 20000 м    8/3 600 м кучево-дожд., средняя, верхняя 
[Cb cap|Ac trans|Ci fib]
+15 +10.2 73 +17  1010.8  0.3  754  286           
18 19.07.17 210 (ЮЗ) 20000 м    8/3 600 м кучево-дожд., средняя, верхняя 
[Cb cap|Ac trans|Ci fib]
+13.7 +10.6 82 +17  1011  0.2  754  287    +18.2       
21 19.07.17 210 (ЮЗ) 10 км    9/3 600 м кучево-дожд., средняя 
[Cb cap|Ac trans]
+12.2 +10.6 90 +15  1011.2  0.1  754  289           
00 20.07.17 тихо ()   20000 м    8/3 1000 м средняя 
[Sc|Ac trans]
+8.6 +8.1 97 +9  1011.6  0.3  754  293           
03 20.07.17 тихо ()   20000 м    8/3 600 м кучево-дожд., средняя 
[Cb cap|Ac trans]
+11.4 +10.2 92 +13  1011.4  0.1  754  290  +7.4         
06 20.07.17 240 (ЮЗ) 20000 м    8/4 600 м кучево-дожд., средняя 
[Cb cap|Ac trans]
+13.8 +10.4 80 +17  1011.4  0.1  754  287  +7.4        влажная 
09 20.07.17 250 (З) 20000 м    8/4 600 м кучево-дожд., средняя 
[Cb cap|Ac trans]
+16.2 +10.1 67 +18  1011.4  754  285           
12 20.07.17 230 (ЮЗ) 20000 м    8/4 600 м кучево-дожд., средняя 
[Cb cap|Ac trans]
+17.3 +9.2 59 +18  1011  -0.4  754  284           
15 20.07.17 240 (ЮЗ) 20000 м    8/4 600 м кучево-дожд., средняя, верхняя 
[Cb cap|Ac trans|Ci fib]
+18.3 +8.9 54 +20  1011.3  0.3  754  283           
18 20.07.17 тихо ()   20000 м    3/1 600 м кучево-дожд., средняя, верхняя 
[Cb cap|Ac trans|Ci fib]
+13.6 +10.5 82 +15  1011.8  0.5  755  288    +18.6       
21 20.07.17 тихо ()   10 км    3/0 средняя 
[Ac trans]
+7.4 +6.9 97 +7  1012.3  0.3  755  295           
00 21.07.17 тихо ()   20000 м    3/0 средняя 
[Ac trans]
+5.6 +5.2 97 +6  1013  0.7  755  297           
Время (UTC), дата Ветер
(°,м/с) 
Видим.   Явления Облачность Т
(°С)
Тd
(°С)
f(%) Тe
(°С)
Pmin
(гПа)
dP
(гПа)
Po
(мм)
O2
(г/м3)
Тmin Tmax R s Состояние
почвы

Для получения пояснительной информации подведите курсор к названию столбца.

ПОГОДА в Пудоже - архив

Всё, что Вы хотите узнать о погоде в Пудоже - удобно и подробно!

Выберите нужную дату (начиная с 1 января 2015* года) и нажмите кнопку "Найти".
Будут отображены архивные сводки погоды по пункту Пудож, начиная с указанной даты.


Отображать данные в формате CSV (для использования в таблицах Excel)


Внимание! Наш архив погоды предназначен исключительно для личного некоммерческого использования в познавательных целях. Если Вам необходимы официальные справки о состоянии погоды (для производственных, юридических, коммерческих и т.п. целей), обращайтесь в органы Росгидромета.

*Примечание: данная дата относится к архиву по метеостанциям СССР (Россия, СНГ, Балтия).
Архив по метеостанциям Зарубежной Европы и Азии (кроме Китая) хранится 10 дней, по другим регионам земного шара (Китай, Африка, Америка, Австралия, Океания) - 1 день.

Пудож - район местоположения метеостанции


Название, широта, долгота, высота метеостанции:
Пудож 61.8°ш. 36.5°д. 44 м над ур. моря [Российская Федерация]

Дополнительная информация

В oтличие oт бoльшинства пoгoдных сайтoв мы публикуем пoдрoбную метеoинфoрмацию в детальнoм прoфессиoнальнoм фoрмате.

Характеристики температуры и влажнoсти вoздуха измеряются на высoте 2 м в тени вдали oт зданий и деревьев.
Скoрoсть ветра измеряется на высoте 10 м (на урoвне рoста челoвека скoрoсть ветра ниже в 1.5-2 раза). Если метеoстанция нахoдится в гoрoде или в лесу, тo скoрoсть ветра занижена на 2-4 м/с пo сравнению с oткрытым местoм. Скoрoсть ветра над акватoриями крупных рек и oзёр, а также на вершинах хoлмoв на 2-5 м/с выше, чем в oбычных услoвиях.
Атмoсфернoе давление в разных тoчках местнoсти мoжет значительнo oтличаться oт давления на метеoстанции, в зависимoсти oт услoвий рельефа (при пoдъёме на 10 м давление пoнижается примернo на 1 мм рт.ст.).